Tracking 25995 objects as of 19-Aug-2022
HD Live streaming from Space Station
objects crossing your sky now

THOR ABLESTAR DEB

Track THOR ABLESTAR DEB now!
10-day predictions


NORAD ID: 3842
Int'l Code: 1961-015JF
Perigee: 904.3 km
Apogee: 1,104.5 km
Inclination: 66.7 °
Period: 105.1 minutes
Semi major axis: 7375 km
RCS: 0.0118 m2 (small)
Launch date: June 29, 1961
Source: United States (US)
Launch site: AIR FORCE EASTERN TEST RANGE (AFETR)

Note: This is SATELLITE DEBRIS
aabbcc
Your satellite tracking list
Your tracking list is empty




NASA's NSSDC Master Catalog

Two Line Element Set (TLE):
1 03842U 61015JF  22230.41720438  .00000053  00000-0  13365-3 0  9997
2 03842  66.7380  97.3774 0135685 315.7539  43.2742 13.70638021 43377
Source of the keplerian elements: AFSPC